Location: Sternwarte_Laufen
(47.9344°N, 12.9346°E)
Time: 09:20:25
(UTC+01:00)

ISS - Visible Passes

Search period start: 19 February 2019 00:00
Search period end: 01 March 2019 00:00
Orbit: 403 x 411 km, 51.6° (Epoch: 19 February)

Date Brightness Start Highest point End Pass type
(mag) Time Alt. Az. Time Alt. Az. Time Alt. Az.
24 Feb -1.0 05:42:57 10° S 05:45:08 17° SE 05:47:20 10° E visible
25 Feb -3.1 06:26:34 10° SW 06:29:47 54° SSE 06:33:00 10° ENE visible
26 Feb -2.3 05:35:38 12° SSW 05:38:20 33° SE 05:41:20 10° ENE visible
27 Feb -1.7 04:46:29 20° SSE 04:46:56 21° SE 04:49:29 10° E visible
27 Feb -3.8 06:19:53 10° WSW 06:23:09 82° NNW 06:26:27 10° ENE visible
28 Feb -3.6 05:29:55 25° SW 05:31:37 67° SSE 05:34:52 10° ENE visible
